OBJECT H, 55016

Orbit data source: Space-Track

You're viewing an Uncataloged Satellite

Recently launched and/or uncataloged satellites may have evolving metadata. Metadata may include but not limited to: Owner, Maufacturer, Bus, Motor, and Mission.

OBJECT H, 55016 is a satellite in SSO that was launched on Tue, 03 Jan 2023 UTC via an FALCON 9 launch vehicle from the Air Force Eastern Test Range (AFETR). Unknown objects in Earth's orbit typically refer to objects detected orbiting the Earth but have not yet been identified or cataloged. These objects could be anything from previously untracked satellites, spent rocket stages, debris from satellite collisions, or even natural meteoroids temporarily captured by Earth's gravity.

Loading next visibility...
Identifier
55016, 2023-001H
Orbit
SSO
Country
Flag of TBDTBD
Related business
None
Manufacturer
Unknown
Mission
Non-operational Commercial Technology
Bus & Motor
Unknown
Mass
Unknown
Launch date (UTC)
2023-01-03 (3 years ago)
Launch vehicle
FALCON 9
Launch site
Air Force Eastern Test Range (AFETR)
Object type
Unknown
Shape & HBR
Box + 2 Pan, 0.1 m
Radar Cross Section
0.080 m², Medium (>0.1 m² and < 1m²)

Expand to show TLE details & history
Last TLE update: 6 hours ago

TLE from 6 hours ago
0 OBJECT H
1 55016U 23001H   26126.58172167  .00011355  00000-0  28122-3 0  9990
2 55016  97.3177 190.6762 0005054 253.2269 106.8423 15.40567273185814
Epoch: 2026-05-06T13:57Z
TLE epoch observation values (Epoch: 2026-05-06T13:57:40.752Z)
Latitude
-0.00003°
Longitude
116.81625°
Altitude
448.556 km
Speed
7.643 km/s
True Right ascension
12h 42m 42s
True Declination
0° 00' 00"
Sunlit
Object was in full shadow at epoch
Visualization orbit readout
Latitude
Unknown
Longitude
Unknown
Altitude
Unknown
Speed
Unknown
Apparent Right ascension
Unknown
Apparent Declination
Unknown
Sunlit
N/A
Visualization observer readout
Local Sidereal Time
03:28:42
Azimuth
Unknown
Elevation
Unknown
Doppler factor
Unknown
Orbital elements
Apogee altitude
444.815 km
Perigee altitude
437.922 km
Semi-major axis
6,819.506 km
Eccentricity
0.00051
Inclination
97.3177°
RAAN
190.6762°
Arg. of periapsis
253.2269°
True anomaly
106.89772°
Mean anomaly
106.8423°
Eccentric anomaly
106.87001°
Mean motion
3.85402 °/min
Orbital period
93.41 mins
BSTAR
0.00028122
Loading maneuver chart data...
Computing Atmospheric mass density...
Loading historical data...
Loading historical data...
Loading historical data...
Loading historical data...
Loading historical data...
Loading historical data...
Loading historical data...

Documentation

Showing up to 5 results
|